Roseau, MN

3:41 AM CDT on April 23, 2018 (GMT -0500)
Roseau Municipal-Billberg

Weather History for KROX - February, 2013

Change the Weather History Date:

Wednesday, February 20, 2013

  Actual Average Record
Temperature  
Mean Temperature -11 °F -  
Max Temperature 1 °F 20 °F 42 °F (2017)
Min Temperature -23 °F -3 °F -42 °F (1966)
Degree Days  
Heating Degree Days 76    
Moisture  
Dew Point -17 °F    
Average Humidity 66    
Maximum Humidity 77    
Minimum Humidity 55    
Precipitation  
Precipitation 0.00 in - - ()
Sea Level Pressure  
Sea Level Pressure 30.46 in    
Wind  
Wind Speed 6 mph (ENE)    
Max Wind Speed 14 mph    
Max Gust Speed -    
Visibility 10 miles    
Events      
Averages and records for this station are not official NWS values.
T = Trace of Precipitation, MM = Missing Value Source: NWS Daily Summary

Daily Weather History Graph

Daily Weather History Graph

Search for Another Location

Airport or City:

Astronomy

Feb. 20, 2013 Rise Set
Actual Time 7:21 AM CST 5:52 PM CST
Civil Twilight 6:49 AM CST 6:24 PM CST
Nautical Twilight 6:12 AM CST 7:01 PM CST
Astronomical Twilight 5:36 AM CST 7:37 PM CST
Moon 12:59 PM CST (2/20) 3:58 AM CST (2/20)
Length of Visible Light 11h 35m
Length of Day
10h 30m
Waxing Gibbous, 76% of the Moon is Illuminated
Feb 20
Waxing Gibbous
Feb 25
Full
Mar 4
Last Quarter
Mar 11
New
Mar 19
First Quarter

Hourly Weather History & Observations

Time (CST) Temp. Windchill Dew Point Humidity Pressure Visibility Wind Dir Wind Speed Gust Speed Precip Events Conditions
12:13 AM -13.0 °F -25.1 °F -20.2 °F 70% 30.48 in 10.0 mi NNW 4.6 mph - N/A   Clear
12:34 AM -13.0 °F -27.0 °F -20.2 °F 70% 30.48 in 10.0 mi North 5.8 mph - N/A   Clear
12:54 AM -16.6 °F -26.8 °F -23.8 °F 70% 30.48 in 10.0 mi North 3.5 mph - N/A   Clear
1:14 AM -16.6 °F -26.8 °F -23.8 °F 70% 30.48 in 10.0 mi NNE 3.5 mph - N/A   Clear
1:34 AM -16.6 °F - -22.0 °F 76% 30.48 in 10.0 mi Calm Calm - N/A   Clear
1:54 AM -16.6 °F - -22.0 °F 76% 30.48 in 10.0 mi Calm Calm - N/A   Clear
2:14 AM -16.6 °F - -22.0 °F 76% 30.49 in 10.0 mi Calm Calm - N/A   Clear
2:34 AM -16.6 °F -29.3 °F -23.8 °F 70% 30.49 in 10.0 mi NNE 4.6 mph - N/A   Clear
2:54 AM -20.2 °F -33.5 °F -27.4 °F 69% 30.49 in 10.0 mi NNE 4.6 mph - N/A   Clear
3:34 AM -20.2 °F - -27.4 °F 69% 30.49 in 10.0 mi Calm Calm - N/A   Clear
3:54 AM -18.4 °F - -25.6 °F 70% 30.50 in 10.0 mi Calm Calm - N/A   Clear
4:14 AM -20.2 °F -30.9 °F -25.6 °F 76% 30.50 in 10.0 mi NE 3.5 mph - N/A   Clear
4:35 AM -20.2 °F -33.5 °F -27.4 °F 69% 30.49 in 10.0 mi NE 4.6 mph - N/A   Clear
4:54 AM -20.2 °F -33.5 °F -27.4 °F 69% 30.49 in 10.0 mi ENE 4.6 mph - N/A   Clear
5:14 AM -22.0 °F -39.4 °F -27.4 °F 76% 30.49 in 10.0 mi ENE 6.9 mph - N/A   Clear
5:34 AM -23.8 °F -41.6 °F -29.2 °F 76% 30.50 in 10.0 mi ENE 6.9 mph - N/A   Clear
5:54 AM -23.8 °F -41.6 °F -29.2 °F 76% 30.50 in 10.0 mi ENE 6.9 mph - N/A   Clear
6:14 AM -20.2 °F -38.8 °F -27.4 °F 69% 30.49 in 10.0 mi ENE 8.1 mph - N/A   Clear
6:34 AM -20.2 °F -37.3 °F -27.4 °F 69% 30.50 in 10.0 mi ENE 6.9 mph - N/A   Clear
6:54 AM -22.0 °F -37.7 °F -29.2 °F 69% 30.50 in 10.0 mi ENE 5.8 mph - N/A   Clear
7:14 AM -20.2 °F -33.5 °F -27.4 °F 69% 30.50 in 10.0 mi ENE 4.6 mph - N/A   Clear
7:34 AM -20.2 °F -33.5 °F -27.4 °F 69% 30.50 in 10.0 mi ENE 4.6 mph - N/A   Clear
7:54 AM -20.2 °F -33.5 °F -27.4 °F 69% 30.51 in 10.0 mi ENE 4.6 mph - N/A   Clear
8:14 AM -20.2 °F -35.5 °F -27.4 °F 69% - 10.0 mi ENE 5.8 mph - N/A   Clear
8:34 AM -18.4 °F -35.1 °F -25.6 °F 70% 30.51 in 10.0 mi East 6.9 mph - N/A   Clear
8:54 AM -14.8 °F -34.6 °F -22.0 °F 70% 30.50 in 10.0 mi East 10.4 mph - N/A   Clear
9:14 AM -11.2 °F -31.1 °F -18.4 °F 70% 30.50 in 10.0 mi East 11.5 mph - N/A   Clear
9:34 AM -9.4 °F -28.9 °F -16.6 °F 71% 30.49 in 10.0 mi East 11.5 mph - N/A   Clear
9:54 AM -9.4 °F -28.9 °F -16.6 °F 71% 30.49 in 10.0 mi East 11.5 mph - N/A   Clear
10:14 AM -9.4 °F -25.6 °F -16.6 °F 71% 30.50 in 10.0 mi ENE 8.1 mph - N/A   Clear
10:34 AM -9.4 °F -27.9 °F -14.8 °F 77% 30.50 in 10.0 mi ENE 10.4 mph - N/A   Clear
10:54 AM -7.6 °F -23.4 °F -14.8 °F 71% 30.50 in 10.0 mi ENE 8.1 mph - N/A   Clear
11:14 AM -5.8 °F -19.9 °F -14.8 °F 65% 30.49 in 10.0 mi NE 6.9 mph - N/A   Clear
11:34 AM -5.8 °F -22.4 °F -14.8 °F 65% 30.49 in 10.0 mi NE 9.2 mph - N/A   Clear
11:54 AM -5.8 °F -21.2 °F -14.8 °F 65% 30.49 in 10.0 mi ENE 8.1 mph - N/A   Clear
12:14 PM -4.0 °F -22.1 °F -14.8 °F 60% 30.48 in 10.0 mi ENE 11.5 mph - N/A   Clear
12:34 PM -4.0 °F -21.2 °F -14.8 °F 60% 30.48 in 10.0 mi ENE 10.4 mph - N/A   Clear
12:54 PM -2.2 °F -19.9 °F -14.8 °F 55% 30.47 in 10.0 mi NE 11.5 mph - N/A   Clear
1:14 PM -2.2 °F -18.0 °F -13.0 °F 60% 30.48 in 10.0 mi ENE 9.2 mph - N/A   Clear
1:34 PM -0.4 °F -15.7 °F -13.0 °F 55% 30.48 in 10.0 mi ENE 9.2 mph - N/A   Clear
1:54 PM -0.4 °F -17.6 °F -13.0 °F 55% 30.47 in 10.0 mi ENE 11.5 mph - N/A   Clear
2:14 PM -0.4 °F -17.6 °F -11.2 °F 60% 30.47 in 10.0 mi ENE 11.5 mph - N/A   Clear
2:34 PM 1.4 °F -15.3 °F -11.2 °F 56% 30.46 in 10.0 mi NE 11.5 mph - N/A   Clear
2:54 PM 1.4 °F -14.5 °F -9.4 °F 61% 30.46 in 10.0 mi ENE 10.4 mph - N/A   Clear
3:14 PM 1.4 °F -16.1 °F -9.4 °F 61% 30.45 in 10.0 mi ENE 12.7 mph - N/A   Clear
3:34 PM 1.4 °F -16.1 °F -9.4 °F 61% 30.45 in 10.0 mi ENE 12.7 mph - N/A   Clear
3:54 PM 1.4 °F -14.5 °F -9.4 °F 61% 30.45 in 10.0 mi ENE 10.4 mph - N/A   Clear
4:14 PM 1.4 °F -15.3 °F -9.4 °F 61% 30.45 in 10.0 mi ENE 11.5 mph - N/A   Clear
4:34 PM 1.4 °F -15.3 °F -9.4 °F 61% - 10.0 mi ENE 11.5 mph - N/A   Clear
4:54 PM 1.4 °F -14.5 °F -9.4 °F 61% 30.44 in 10.0 mi ENE 10.4 mph - N/A   Clear
5:14 PM 1.4 °F -13.5 °F -11.2 °F 56% 30.45 in 10.0 mi East 9.2 mph - N/A   Clear
5:34 PM -0.4 °F -17.6 °F -11.2 °F 60% 30.44 in 10.0 mi ENE 11.5 mph - N/A   Clear
5:54 PM 1.4 °F -16.9 °F -11.2 °F 56% 30.44 in 10.0 mi ENE 13.8 mph - N/A   Clear
6:14 PM 1.4 °F -16.1 °F -9.4 °F 61% 30.43 in 10.0 mi ENE 12.7 mph - N/A   Clear
6:34 PM 1.4 °F -14.5 °F -9.4 °F 61% 30.43 in 10.0 mi East 10.4 mph - N/A   Clear
6:54 PM 1.4 °F -14.5 °F -9.4 °F 61% 30.43 in 10.0 mi East 10.4 mph - N/A   Clear
7:14 PM 1.4 °F -12.5 °F -9.4 °F 61% 30.43 in 10.0 mi East 8.1 mph - N/A   Clear
7:34 PM -0.4 °F -13.4 °F -9.4 °F 66% 30.42 in 10.0 mi East 6.9 mph - N/A   Clear
7:54 PM -0.4 °F -13.4 °F -9.4 °F 66% 30.42 in 10.0 mi East 6.9 mph - N/A   Clear
8:14 PM 1.4 °F -14.5 °F -7.6 °F 66% 30.41 in 10.0 mi East 10.4 mph - N/A   Clear
8:35 PM -0.4 °F -16.7 °F -9.4 °F 66% 30.41 in 10.0 mi East 10.4 mph - N/A   Clear
8:54 PM -0.4 °F -16.7 °F -9.4 °F 66% 30.40 in 10.0 mi East 10.4 mph - N/A   Clear
9:14 PM -0.4 °F -15.7 °F -9.4 °F 66% 30.41 in 10.0 mi East 9.2 mph - N/A   Clear
9:35 PM -0.4 °F -17.6 °F -11.2 °F 60% 30.39 in 10.0 mi East 11.5 mph - N/A   Clear
9:54 PM 1.4 °F -14.5 °F -9.4 °F 61% 30.40 in 10.0 mi East 10.4 mph - N/A   Clear
10:34 PM 1.4 °F -14.5 °F -9.4 °F 61% 30.39 in 10.0 mi East 10.4 mph - N/A   Clear
10:54 PM 1.4 °F -11.3 °F -9.4 °F 61% 30.40 in 10.0 mi ESE 6.9 mph - N/A   Clear
11:15 PM 1.4 °F -12.5 °F -9.4 °F 61% 30.40 in 10.0 mi East 8.1 mph - N/A   Clear
11:34 PM -2.2 °F -12.5 °F -11.2 °F 66% 30.41 in 10.0 mi ENE 4.6 mph - N/A   Clear
11:54 PM -2.2 °F -14.2 °F -11.2 °F 66% 30.41 in 10.0 mi East 5.8 mph - N/A   Clear